CZ-4 DEB, 26121

Orbit data source: Space-Track

CZ-4 DEB, 26121 is space debris in SSO originally from a launch on Thu, 14 Oct 1999 UTC launched from the Taiyaun Space Center, China (TSC). Debris objects in space refer to the collection of defunct objects orbiting the Earth. Examples of debris include non-operational satellites, rocket bodies, and fragments generated from explosions, collisions, or faulty payload assembly.

Loading next visibility...
Identifier
26121, 1999-057H
Orbit
SSO
Country
Flag of CNCN / PRC
Related business
Manufacturer
Unknown
Mission
Spacecraft
Bus & Motor
Unknown
Mass
Unknown
Launch date (UTC)
1999-10-14 (26 years ago)
Launch vehicle
Unknown
Launch site
Taiyaun Space Center, China (TSC)
Object type
Payload
Rocket body
Debris
Shape & HBR
Unknown shape, 1.7 m
Radar Cross Section
Large (>1 m²)

Expand to show TLE details & history
Last TLE update: 21 hours ago

TLE from 21 hours ago
0 CZ-4 DEB
1 26121U 99057H   26036.77373376  .00026432  00000-0  10586-2 0  9991
2 26121  98.6787 112.1501 0033687 285.1169  74.6339 15.24508628406631
Epoch: 2026-02-05T18:34Z
TLE epoch observation values (Epoch: 2026-02-05T18:34:10.596Z)
Latitude
-0.00004°
Longitude
57.68481°
Altitude
489.257 km
Speed
7.624 km/s
True Right ascension
07h 28m 36s
True Declination
0° 00' 00"
Sunlit
Object was in full shadow at epoch
Visualization orbit readout
Latitude
Unknown
Longitude
Unknown
Altitude
Unknown
Speed
Unknown
Apparent Right ascension
Unknown
Apparent Declination
Unknown
Sunlit
N/A
Visualization observer readout
Local Sidereal Time
17:44:47
Azimuth
Unknown
Elevation
Unknown
Doppler factor
Unknown
Orbital elements
Apogee altitude
512.414 km
Perigee altitude
466.146 km
Semi-major axis
6,867.417 km
Eccentricity
0.00337
Inclination
98.6787°
RAAN
112.1501°
Arg. of periapsis
285.1169°
True anomaly
75.00654°
Mean anomaly
74.6339°
Eccentric anomaly
74.82018°
Mean motion
3.81376 °/min
Orbital period
94.4 mins
BSTAR
0.0010586
Loading maneuver chart data...
Computing Atmospheric mass density...
Loading historical data...
Loading historical data...
Loading historical data...
Loading historical data...
Loading historical data...
Loading historical data...
Loading historical data...

Documentation

Showing up to 5 results
|